Data for 09/24/2018

Time Sea-Level Adjusted Pressure Absolute Pressure Temperature Relative Humidity Dew Point   
(mb) (inHg) (mb) (inHg) (C) (F) (%) (C) (F)
00:05 1018 30.06 848 25.04 6.2 43.1 83 3.4 38.1
00:10 1018 30.06 848 25.04 6.3 43.4 80 3.2 37.7
00:15 1018 30.06 848 25.04 6.5 43.6 82 3.5 38.4
00:20 1019 30.09 848 25.04 6.4 43.5 83 3.7 38.6
00:25 1019 30.09 848 25.04 6.2 43.1 85 3.8 38.9
00:30 1019 30.09 848 25.04 6 42.9 85 3.6 38.6
00:35 1019 30.09 848 25.04 6 42.7 85 3.7 38.7
00:40 1019 30.09 848 25.04 6 42.8 85 3.7 38.6
00:45 1019 30.09 848 25.04 6.2 43.1 84 3.7 38.7
00:50 1019 30.09 848 25.04 6.1 43 85 3.9 38.9
00:55 1019 30.09 848 25.04 5.9 42.7 85 3.7 38.6
01:00 1019 30.09 848 25.04 5.8 42.5 86 3.6 38.5
01:05 1019 30.09 848 25.04 5.8 42.4 86 3.5 38.4
01:10 1019 30.09 848 25.04 5.9 42.6 81 2.9 37.3
01:15 1019 30.09 848 25.04 6.3 43.3 77 2.6 36.7
01:20 1019 30.09 848 25.04 6.6 44 74 2.4 36.3
01:25 1019 30.09 848 25.04 6.7 44 74 2.3 36.1
01:30 1019 30.09 848 25.04 6.7 44 72 2 35.5
01:35 1019 30.09 848 25.04 6.7 44.1 71 1.8 35.3
01:40 1019 30.09 848 25.04 6.8 44.2 70 1.7 35
01:45 1019 30.09 848 25.04 6.8 44.2 69 1.6 34.9
01:50 1019 30.09 848 25.04 6.9 44.3 69 1.5 34.7
01:55 1018 30.06 848 25.04 6.9 44.3 69 1.6 34.8
02:00 1018 30.06 848 25.04 6.9 44.4 67 1.2 34.1
02:05 1018 30.06 848 25.04 6.9 44.5 67 1.2 34.1
02:10 1018 30.06 848 25.04 6.9 44.4 70 1.8 35.3
02:15 1018 30.06 847 25.01 6.6 43.9 72 1.9 35.4
02:20 1018 30.06 847 25.01 6.5 43.7 72 1.8 35.3
02:25 1018 30.06 847 25.01 6.5 43.6 71 1.5 34.8
02:30 1018 30.06 847 25.01 6.4 43.5 71 1.5 34.7
02:35 1018 30.06 847 25.01 6.4 43.5 69 1.2 34.1
02:40 1018 30.06 847 25.01 6.4 43.5 67 0.7 33.3
02:45 1018 30.06 847 25.01 6.4 43.5 66 0.6 33
02:50 1018 30.06 847 25.01 6.5 43.7 63 0.1 32.1
02:55 1018 30.06 848 25.04 6.7 44.1 62 -0.1 31.8
03:00 1018 30.06 848 25.04 6.8 44.3 60 -0.3 31.5
03:05 1018 30.06 848 25.04 6.9 44.5 61 -0.1 31.8
03:10 1018 30.06 848 25.04 7 44.5 59 -0.6 31
03:15 1018 30.06 848 25.04 7.1 44.7 59 -0.3 31.4
03:20 1018 30.06 848 25.04 7.1 44.7 60 -0.1 31.8
03:25 1018 30.06 848 25.04 7 44.6 59 -0.5 31.1
03:30 1018 30.06 848 25.04 7 44.6 60 -0.3 31.5
03:35 1018 30.06 848 25.04 6.9 44.4 60 -0.3 31.4
03:40 1018 30.06 848 25.04 6.9 44.4 60 -0.4 31.3
03:45 1018 30.06 848 25.04 6.8 44.2 66 0.9 33.6
03:50 1019 30.09 848 25.04 6.6 43.9 65 0.5 32.8
03:55 1019 30.09 848 25.04 6.6 43.8 60 -0.6 30.9
04:00 1018 30.06 848 25.04 6.6 43.9 71 1.7 35
04:05 1018 30.06 848 25.04 6.1 42.9 73 1.5 34.7
04:10 1018 30.06 848 25.04 5.6 42.1 69 0.4 32.6
04:15 1018 30.06 848 25.04 5.7 42.2 73 1.2 34.2
04:20 1018 30.06 848 25.04 5.5 41.8 75 1.4 34.5
04:25 1018 30.06 848 25.04 5.2 41.4 75 1.2 34.1
04:30 1018 30.06 848 25.04 5.3 41.6 72 0.7 33.3
04:35 1018 30.06 848 25.04 5.5 41.8 70 0.5 32.9
04:40 1019 30.09 848 25.04 5.5 41.9 72 1 33.7
04:45 1019 30.09 848 25.04 5.5 41.8 75 1.3 34.4
04:50 1019 30.09 848 25.04 5.3 41.5 73 0.8 33.4
04:55 1019 30.09 848 25.04 5.2 41.3 77 1.5 34.7
05:00 1019 30.09 848 25.04 4.8 40.6 79 1.5 34.7
05:05 1019 30.09 848 25.04 4.6 40.2 79 1.3 34.3
05:10 1019 30.09 848 25.04 4.5 40.1 78 1.1 34
05:15 1019 30.09 848 25.04 4.6 40.3 76 0.8 33.4
05:20 1019 30.09 848 25.04 4.6 40.2 76 0.8 33.4
05:25 1019 30.09 848 25.04 4.5 40 76 0.7 33.2
05:30 1019 30.09 848 25.04 4.4 39.9 76 0.6 33
05:35 1019 30.09 848 25.04 4.4 39.8 77 0.6 33.1
05:40 1019 30.09 848 25.04 4.4 39.8 74 0.1 32.3
05:45 1019 30.09 848 25.04 4.6 40.2 70 -0.3 31.4
05:50 1019 30.09 848 25.04 4.7 40.4 71 -0.2 31.7
05:55 1019 30.09 848 25.04 4.7 40.4 71 -0.1 31.8
06:00 1019 30.09 848 25.04 4.6 40.3 72 -0 31.9
06:05 1019 30.09 848 25.04 4.7 40.4 72 -0 32
06:10 1019 30.09 848 25.04 4.8 40.6 72 0.2 32.4
06:15 1019 30.09 848 25.04 4.6 40.3 72 0 32
06:20 1019 30.09 848 25.04 4.1 39.4 74 -0.1 31.8
06:25 1019 30.09 848 25.04 4 39.2 74 -0.3 31.5
06:30 1019 30.09 848 25.04 4 39.3 73 -0.3 31.5
06:35 1019 30.09 848 25.04 4.1 39.4 74 -0.1 31.9
06:40 1019 30.09 848 25.04 4 39.2 75 0 32.1
06:45 1019 30.09 848 25.04 3.9 39 77 0.2 32.3
06:50 1019 30.09 848 25.04 3.9 39 76 0.1 32.2
06:55 1019 30.09 848 25.04 4 39.2 76 0.2 32.4
07:00 1019 30.09 848 25.04 4 39.3 77 0.3 32.5
07:05 1019 30.09 848 25.04 4.1 39.4 76 0.2 32.4
07:10 1019 30.09 849 25.07 4.2 39.5 75 0.2 32.4
07:15 1019 30.09 849 25.07 4.2 39.5 74 -0.1 31.9
07:20 1019 30.09 849 25.07 4.3 39.8 75 0.2 32.4
07:25 1019 30.09 849 25.07 4.3 39.7 78 0.8 33.4
07:30 1020 30.12 849 25.07 4 39.3 79 0.7 33.2
07:35 1019 30.09 849 25.07 4 39.1 78 0.5 33
07:40 1019 30.09 849 25.07 4.3 39.7 74 0.1 32.2
07:45 1019 30.09 849 25.07 4.7 40.5 73 0.3 32.5
07:50 1019 30.09 849 25.07 4.9 40.8 71 0.1 32.2
07:55 1019 30.09 849 25.07 5.2 41.3 70 0.1 32.2
08:00 1019 30.09 849 25.07 5.5 41.8 66 -0.5 31.2
08:05 1019 30.09 848 25.04 5.6 42.2 65 -0.4 31.4
08:10 1019 30.09 848 25.04 5.7 42.3 66 -0.1 31.8
08:15 1019 30.09 848 25.04 5.8 42.4 66 -0.1 31.8
08:20 1019 30.09 848 25.04 5.8 42.4 67 0.2 32.3
08:25 1019 30.09 848 25.04 5.9 42.7 67 0.3 32.5
08:30 1019 30.09 848 25.04 6.2 43.2 63 -0.2 31.7
08:35 1019 30.09 848 25.04 6.7 44.1 61 -0.2 31.7
08:40 1019 30.09 848 25.04 7.5 45.4 58 -0.3 31.5
08:45 1019 30.09 849 25.07 7.6 45.7 54 -1 30.2
08:50 1019 30.09 849 25.07 7.7 45.8 67 1.9 35.5
08:55 1019 30.09 849 25.07 7.5 45.6 65 1.4 34.4
09:00 1020 30.12 849 25.07 7.9 46.2 55 -0.7 30.8
09:05 1020 30.12 849 25.07 8 46.4 53 -0.9 30.5
09:10 1020 30.12 849 25.07 8.1 46.6 51 -1.4 29.6
09:15 1020 30.12 849 25.07 8 46.4 51 -1.6 29.1
09:20 1020 30.12 849 25.07 8.2 46.7 55 -0.2 31.6
09:25 1020 30.12 849 25.07 8 46.4 64 1.7 35
09:30 1020 30.12 849 25.07 7.5 45.4 63 1 33.8
09:35 1020 30.12 849 25.07 7.8 46 60 0.6 33.1
09:40 1020 30.12 849 25.07 7.7 45.8 63 1.2 34.2
09:45 1020 30.12 849 25.07 7.6 45.6 61 0.6 33.1
09:50 1020 30.12 849 25.07 7.5 45.5 61 0.5 32.9
09:55 1020 30.12 849 25.07 7.3 45.1 61 0.2 32.4
10:00 1020 30.12 849 25.07 7.4 45.3 60 0.1 32.1
10:05 1020 30.12 849 25.07 7.2 45 60 -0 32
10:10 1020 30.12 849 25.07 7.4 45.3 59 -0.1 31.7
10:15 1020 30.12 849 25.07 7.5 45.5 61 0.5 32.9
10:20 1020 30.12 849 25.07 7.5 45.6 59 0.1 32.2
10:25 1020 30.12 849 25.07 7.6 45.6 57 -0.5 31.2
10:30 1020 30.12 849 25.07 7.6 45.6 58 -0.2 31.6
10:35 1020 30.12 849 25.07 7.5 45.5 60 0.3 32.5
10:40 1020 30.12 849 25.07 7.6 45.6 58 -0.2 31.6
10:45 1020 30.12 849 25.07 7.4 45.4 60 0.1 32.2
10:50 1020 30.12 849 25.07 7.5 45.4 60 0.3 32.6
10:55 1020 30.12 849 25.07 7.4 45.4 58 -0.2 31.7
11:00 1020 30.12 849 25.07 7.2 44.9 61 0.2 32.4
11:05 1020 30.12 849 25.07 7.7 45.8 57 -0.3 31.4
11:10 1020 30.12 849 25.07 8.1 46.5 56 -0.3 31.5
11:15 1020 30.12 849 25.07 8.2 46.7 50 -1.5 29.2
11:20 1020 30.12 849 25.07 8.2 46.7 51 -1.3 29.7
11:25 1020 30.12 849 25.07 8.3 47 52 -0.8 30.5
11:30 1020 30.12 849 25.07 8.4 47.1 50 -1.3 29.7
11:35 1020 30.12 849 25.07 9.1 48.3 48 -1.4 29.6
11:40 1020 30.12 849 25.07 9.5 49 48 -0.9 30.3
11:45 1020 30.12 849 25.07 9.8 49.6 47 -1.1 30.1
11:50 1020 30.12 849 25.07 10 50 47 -0.8 30.5
11:55 1020 30.12 849 25.07 10.2 50.3 45 -1.1 30.1
12:00 1020 30.12 849 25.07 10.3 50.5 46 -0.8 30.6
12:05 1020 30.12 849 25.07 9.7 49.4 48 -0.7 30.8
12:10 1020 30.12 849 25.07 8.7 47.7 52 -0.6 31
12:15 1020 30.12 849 25.07 8.9 48 49 -1.3 29.6
12:20 1020 30.12 849 25.07 9.6 49.2 47 -1.2 29.8
12:25 1020 30.12 849 25.07 10.4 50.6 41 -2.2 28
12:30 1020 30.12 849 25.07 10.7 51.2 41 -1.9 28.5
12:35 1020 30.12 849 25.07 10.4 50.8 44 -1.4 29.5
12:40 1020 30.12 849 25.07 10.3 50.5 45 -1.1 30.1
12:45 1020 30.12 849 25.07 10.4 50.7 40 -2.4 27.6
12:50 1020 30.12 849 25.07 10.5 51 42 -1.9 28.5
12:55 1020 30.12 849 25.07 10.6 51.1 41 -1.9 28.5
13:00 1020 30.12 849 25.07 10.8 51.5 39 -2.5 27.5
13:05 1020 30.12 849 25.07 10.6 51.1 40 -2.3 27.9
13:10 1020 30.12 849 25.07 11.2 52.2 42 -1.3 29.6
13:15 1020 30.12 849 25.07 10.7 51.3 44 -0.8 30.5
13:20 1020 30.12 849 25.07 10.9 51.6 42 -1.3 29.6
13:25 1020 30.12 849 25.07 10.8 51.4 40 -2.4 27.8
13:30 1020 30.12 849 25.07 10.7 51.3 42 -1.5 29.3
13:35 1020 30.12 849 25.07 11 51.9 46 -0.2 31.7
13:40 1020 30.12 849 25.07 10.4 50.8 49 0.2 32.3
13:45 1020 30.12 849 25.07 9.9 49.7 48 -0.5 31
13:50 1020 30.12 849 25.07 9.4 49 49 -0.6 30.9
13:55 1020 30.12 849 25.07 9.5 49.1 49 -0.7 30.7
14:00 1020 30.12 849 25.07 9.5 49 50 -0.4 31.2
14:05 1020 30.12 849 25.07 9.4 49 49 -0.7 30.7
14:10 1020 30.12 849 25.07 9.5 49 47 -1.3 29.7
14:15 1020 30.12 849 25.07 9.6 49.2 48 -0.9 30.4
14:20 1020 30.12 849 25.07 9.9 49.9 46 -1 30.2
14:25 1020 30.12 849 25.07 10 50.1 46 -1 30.2
14:30 1020 30.12 849 25.07 10.1 50.1 44 -1.5 29.3
14:35 1020 30.12 849 25.07 10.1 50.1 43 -1.9 28.5
14:40 1020 30.12 849 25.07 10.1 50.2 44 -1.7 28.9
14:45 1020 30.12 849 25.07 10.3 50.6 43 -1.5 29.2
14:50 1020 30.12 849 25.07 10.4 50.7 43 -1.5 29.4
14:55 1020 30.12 849 25.07 10.2 50.4 44 -1.4 29.4
15:00 1020 30.12 849 25.07 10.3 50.6 45 -1.1 30
15:05 1020 30.12 849 25.07 10.4 50.8 44 -1.3 29.7
15:10 1020 30.12 849 25.07 10.5 50.9 43 -1.4 29.5
15:15 1020 30.12 849 25.07 10.5 50.8 43 -1.4 29.4
15:20 1020 30.12 849 25.07 10.4 50.7 45 -1 30.2
15:25 1020 30.12 849 25.07 9.9 49.9 50 0 32
15:30 1020 30.12 849 25.07 9.6 49.4 51 0.2 32.3
15:35 1020 30.12 850 25.1 9.4 48.8 54 0.5 32.8
15:40 1020 30.12 850 25.1 9.3 48.7 52 0.1 32.1
15:45 1020 30.12 850 25.1 9.4 49 51 -0.2 31.7
15:50 1020 30.12 850 25.1 9.2 48.5 53 0.2 32.4
15:55 1020 30.12 850 25.1 8.8 47.9 56 0.5 32.8
16:00 1020 30.12 850 25.1 8.8 47.9 55 0.3 32.5
16:05 1020 30.12 850 25.1 9.4 48.9 53 0.3 32.5
16:10 1021 30.15 850 25.1 9.5 49.2 53 0.6 33.1
16:15 1021 30.15 850 25.1 9.5 49.2 57 1.4 34.6
16:20 1021 30.15 850 25.1 9.2 48.6 62 2.3 36.1
16:25 1021 30.15 850 25.1 8.5 47.2 62 1.5 34.8
16:30 1021 30.15 850 25.1 8.4 47.1 60 1.1 34
16:35 1021 30.15 850 25.1 8.7 47.6 57 0.8 33.4
16:40 1021 30.15 850 25.1 8.8 47.8 57 0.8 33.5
16:45 1021 30.15 850 25.1 9 48.2 58 1.2 34.2
16:50 1021 30.15 850 25.1 9.3 48.8 56 1.1 33.9
16:55 1021 30.15 850 25.1 9.7 49.4 56 1.5 34.6
17:00 1021 30.15 850 25.1 9.9 49.8 54 1 33.9
17:05 1021 30.15 850 25.1 10.2 50.4 51 0.5 32.9
17:10 1021 30.15 850 25.1 9.6 49.2 53 0.4 32.6
17:15 1021 30.15 850 25.1 9.4 49 53 0.5 32.9
17:20 1021 30.15 850 25.1 9.5 49.1 52 0.2 32.4
17:25 1021 30.15 850 25.1 9.7 49.5 48 -0.7 30.8
17:30 1021 30.15 850 25.1 9.9 49.9 48 -0.6 31
17:35 1021 30.15 850 25.1 9.9 49.9 46 -1.2 29.9
17:40 1021 30.15 850 25.1 9.8 49.6 47 -1 30.3
17:45 1021 30.15 850 25.1 9.7 49.4 45 -1.6 29.2
17:50 1021 30.15 850 25.1 9.7 49.5 46 -1.2 29.8
17:55 1021 30.15 851 25.13 9.7 49.5 48 -0.8 30.6
18:00 1021 30.15 851 25.13 9.2 48.5 52 -0.2 31.7
18:05 1021 30.15 851 25.13 8.8 47.8 52 -0.5 31.1
18:10 1022 30.18 851 25.13 8.8 47.9 52 -0.5 31.1
18:15 1022 30.18 851 25.13 8.8 47.9 52 -0.4 31.4
18:20 1022 30.18 851 25.13 8.7 47.6 53 -0.2 31.6
18:25 1022 30.18 851 25.13 8.6 47.6 53 -0.4 31.4
18:30 1022 30.18 851 25.13 8.7 47.6 54 -0.2 31.6
18:35 1022 30.18 851 25.13 8.6 47.4 54 -0.2 31.6
18:40 1022 30.18 851 25.13 8.5 47.3 54 -0.2 31.7
18:45 1022 30.18 851 25.13 8.5 47.4 54 -0.3 31.4
18:50 1022 30.18 851 25.13 8.6 47.5 54 -0.2 31.7
18:55 1022 30.18 851 25.13 8.6 47.4 55 0.1 32.3
19:00 1022 30.18 851 25.13 8.5 47.3 54 -0.1 31.7
19:05 1022 30.18 851 25.13 8.5 47.3 54 -0.2 31.7
19:10 1022 30.18 851 25.13 8.5 47.3 54 -0.2 31.6
19:15 1022 30.18 852 25.16 8.5 47.3 53 -0.4 31.3
19:20 1022 30.18 852 25.16 8.4 47.2 55 0 32
19:25 1022 30.18 852 25.16 8.3 46.9 56 -0.1 31.9
19:30 1023 30.21 852 25.16 8.2 46.8 56 -0.1 31.9
19:35 1023 30.21 852 25.16 8.2 46.8 56 -0 31.9
19:40 1023 30.21 852 25.16 8.2 46.7 56 -0 32
19:45 1023 30.21 852 25.16 8 46.4 57 0.1 32.2
19:50 1023 30.21 852 25.16 7.9 46.1 58 0.1 32.1
19:55 1023 30.21 852 25.16 7.8 46 58 0 32.1
20:00 1023 30.21 852 25.16 7.7 45.9 58 -0 31.9
20:05 1023 30.21 852 25.16 7.6 45.7 57 -0.2 31.6
20:10 1023 30.21 852 25.16 7.6 45.7 57 -0.3 31.4
20:15 1023 30.21 852 25.16 7.6 45.6 57 -0.4 31.2
20:20 1023 30.21 852 25.16 7.6 45.7 57 -0.2 31.6
20:25 1023 30.21 852 25.16 7.7 45.8 57 -0.3 31.5
20:30 1023 30.21 852 25.16 7.6 45.7 57 -0.4 31.3
20:35 1023 30.21 852 25.16 7.5 45.6 59 0.1 32.3
20:40 1023 30.21 852 25.16 7.4 45.2 61 0.3 32.5
20:45 1023 30.21 852 25.16 7.3 45.1 60 0.1 32.1
20:50 1023 30.21 852 25.16 7.3 45.2 60 0.2 32.4
20:55 1023 30.21 852 25.16 7.3 45.1 61 0.4 32.7
21:00 1023 30.21 852 25.16 7.2 45 61 0.2 32.4
21:05 1023 30.21 853 25.19 7.2 44.9 62 0.4 32.8
21:10 1023 30.21 853 25.19 7.1 44.7 63 0.5 32.9
21:15 1023 30.21 853 25.19 6.9 44.5 64 0.5 32.9
21:20 1023 30.21 853 25.19 6.9 44.4 62 0.2 32.4
21:25 1023 30.21 853 25.19 6.9 44.5 64 0.6 33.1
21:30 1023 30.21 853 25.19 6.9 44.4 63 0.4 32.8
21:35 1023 30.21 853 25.19 6.8 44.3 63 0.2 32.4
21:40 1023 30.21 853 25.19 6.8 44.3 63 0.3 32.5
21:45 1024 30.24 853 25.19 6.8 44.3 63 0.4 32.7
21:50 1023 30.21 853 25.19 6.8 44.2 64 0.5 33
21:55 1024 30.24 853 25.19 6.7 44.1 65 0.6 33
22:00 1024 30.24 853 25.19 6.7 44.1 64 0.4 32.7
22:05 1024 30.24 853 25.19 6.8 44.2 61 -0.1 31.8
22:10 1024 30.24 853 25.19 7 44.7 59 -0.3 31.4
22:15 1024 30.24 853 25.19 7.2 45 60 -0 32
22:20 1024 30.24 853 25.19 7.3 45.1 58 -0.4 31.2
22:25 1024 30.24 853 25.19 7.5 45.5 58 -0.2 31.7
22:30 1024 30.24 853 25.19 7.3 45.1 69 2 35.7
22:35 1024 30.24 853 25.19 6.3 43.3 74 2 35.6
22:40 1024 30.24 854 25.22 5.9 42.6 75 1.7 35.1
22:45 1024 30.24 854 25.22 5.8 42.5 75 1.7 35.1
22:50 1024 30.24 854 25.22 5.8 42.5 75 1.8 35.2
22:55 1024 30.24 854 25.22 5.9 42.6 72 1.2 34.1
23:00 1024 30.24 854 25.22 6 42.8 73 1.6 34.9
23:05 1024 30.24 853 25.19 6 42.8 71 1.1 34
23:10 1024 30.24 853 25.19 6 42.7 68 0.6 33.1
23:15 1024 30.24 853 25.19 6 42.8 69 0.8 33.4
23:20 1024 30.24 854 25.22 6.1 42.9 69 0.8 33.4
23:25 1024 30.24 854 25.22 6 42.7 72 1.4 34.5
23:30 1024 30.24 854 25.22 5.8 42.4 74 1.5 34.7
23:35 1024 30.24 854 25.22 5.6 42.1 76 1.8 35.2
23:40 1024 30.24 854 25.22 5.3 41.6 78 1.8 35.2
23:45 1024 30.24 854 25.22 5.1 41.2 80 1.9 35.5
23:50 1024 30.24 854 25.22 5 41 80 1.8 35.3
23:55 1024 30.24 854 25.22 5 41 79 1.6 35
24:00 1024 30.24 854 25.22 5 40.9 78 1.5 34.7